[[{"header":{"parameterUnit":"m.s-1","parameterCategory":1,"la1":30.2991,"la2":30.254,"lo1":-89.0895,"lo2":-89.0444,"dy":0.0017,"dx":0.0017,"nx":28,"ny":28,"refTime":"2024-10-14T09:00:00:Z","depth":0,"parameterNumber":2,"parameterNumberName":"U-component_of_WINDS"},"data":[0,0,0,0,0,0,0,0,0,0,0,0,0,0,0,0,0,0,0,0,0,0,0,0,0,0,0,0,0,0,0,0,0,0,0,0,0,0,0,0,0,0,0,0,0,0,0,0,0,0,0,0,0,0,0,0,0,0,1.6822,1.6822,0,1.6844,1.6844,1.6844,1.669,1.6685,1.6681,1.6677,1.6706,1.6711,1.6716,0,0,0,0,0,0,0,0,0,0,0,0,0,1.6658,1.6662,1.6822,1.6822,1.6822,1.6844,1.6844,1.6844,1.669,1.6685,1.668,1.6675,1.6705,1.671,1.6716,0,0,0,0,0,0,0,0,0,0,0,0,0,1.671,1.6663,1.6822,1.6748,1.6742,1.6843,1.6844,1.6844,1.6691,1.6685,1.6678,1.6672,1.6703,1.671,1.6717,1.6893,0,0,1.6739,1.6742,0,0,0,0,0,0,0,0,1.6707,1.6716,1.6759,1.6753,1.6746,1.6757,1.6797,1.6861,1.6693,1.6711,1.6677,1.6669,1.6729,1.6734,1.6752,1.6894,1.6896,1.674,1.6744,1.6748,1.675,0,0,0,0,0,0,0,1.6704,1.6714,1.6831,1.676,1.6752,1.6718,1.6718,1.6808,1.6757,1.6709,1.6697,1.6702,1.6724,1.6746,1.6752,1.6896,1.674,1.6746,1.6751,1.6754,1.719,1.7197,0,0,0,0,0,0,1.6709,1.6712,1.683,1.6831,1.671,1.6726,1.6726,1.676,1.6755,1.6748,1.6707,1.6695,1.6736,1.6744,1.6752,1.6961,1.6747,1.6754,1.6758,1.7183,1.7191,1.7199,0,0,0,0,0,0,1.6706,1.6721,1.6829,1.6769,1.678,1.6735,1.6776,1.6764,1.6785,1.6754,1.6745,1.6738,1.6732,1.6742,1.686,1.696,1.6758,1.6764,1.7174,1.7185,1.7195,1.7378,0,0,0,0,0,0,1.6702,1.672,1.6784,1.6771,1.6784,1.6933,1.6782,1.6769,1.6797,1.6781,1.678,1.6774,1.6727,1.685,1.6867,1.6966,1.677,1.7165,1.7179,1.7192,1.7363,1.7394,1.7421,0,0,0,0,0,1.6696,1.6835,1.6788,1.6803,1.6861,1.6939,1.6947,1.6888,1.6806,1.6871,1.6852,1.6774,1.6946,1.6863,1.6881,1.6984,1.7158,1.7175,1.7191,1.735,1.7388,1.742,0,0,0,0,0,0,1.6861,1.6832,1.6779,1.6917,1.6932,1.6913,1.6993,1.6929,1.6969,1.6952,1.688,1.6882,1.7013,1.701,1.6918,1.7157,1.7039,1.7059,1.7154,1.7189,1.7217,1.7216,1.6776,0,0,0,0,0,1.6914,1.6976,1.6948,1.7073,1.7083,1.7038,1.7069,1.7023,1.7037,1.7043,1.7032,1.705,1.7109,1.7149,1.7201,1.7363,1.7363,1.7443,1.7472,1.7495,1.7514,1.7605,1.7641,1.7253,1.7252,1.7252,0,0,1.7023,1.7014,1.7058,1.7106,1.7112,1.7183,1.7044,1.7123,1.7176,1.7055,1.7165,1.716,1.7176,1.7318,1.738,1.732,1.7622,1.7516,1.7535,1.7541,1.7625,1.7662,1.7695,1.7264,1.7262,1.726,0,0,1.7257,1.7255,1.7361,1.737,1.7381,1.7351,1.7377,1.7369,1.736,1.747,1.7383,1.7447,1.7548,1.7564,1.7586,1.7834,1.7765,1.7853,1.8003,1.8092,1.8123,1.815,1.8241,1.8274,1.7872,1.7873,1.7873,0,1.7391,1.749,1.7424,1.751,1.7536,1.743,1.7539,1.7553,1.7581,1.7604,1.7535,1.7664,1.7667,1.7814,1.7875,1.7895,1.7926,1.7852,1.8123,1.8149,1.8174,1.826,1.8295,1.7883,1.7882,1.7881,1.788,0,1.7657,1.7728,1.7813,1.7842,1.7878,1.7975,1.7928,1.7973,1.7926,1.7904,1.8021,1.8022,1.8074,1.8106,1.806,1.8248,1.8211,1.8135,1.8014,1.8223,1.8303,1.8335,1.7899,1.7895,1.7892,1.7889,0,0,1.7992,1.7987,1.8019,1.8033,1.804,1.8096,1.8192,1.8241,1.8283,1.8308,1.8389,1.848,1.8411,1.8436,1.8393,1.8471,1.8672,1.8385,1.8384,1.844,1.8884,1.8942,1.8981,1.8627,1.8633,1.8638,1.8883,0,1.8222,1.8381,1.8327,1.8491,1.8559,1.8462,1.8546,1.8563,1.8547,1.8605,1.8589,1.8656,1.8557,1.8573,1.8646,1.8632,1.876,1.8613,1.8705,1.8709,1.8704,1.9022,1.9083,1.9315,1.8914,1.8919,1.8923,0,1.851,1.8547,1.8718,1.8718,1.8744,1.882,1.8864,1.892,1.8939,1.8923,1.8954,1.8896,1.8994,1.8874,1.9012,1.8913,1.8948,1.8948,1.8956,1.8963,1.8829,1.904,1.9387,1.9422,1.8971,1.8967,1.8964,0,1.8741,1.8833,1.8948,1.8963,1.8965,1.9022,1.9026,1.9038,1.9074,1.9114,1.9137,1.919,1.9219,1.9263,1.9223,1.9138,1.9368,1.9243,1.9361,1.9362,1.9412,1.941,1.9772,1.9434,1.9434,1.9433,1.9432,0,1.9004,1.9113,1.9052,1.9123,1.9244,1.9184,1.9306,1.93,1.9313,1.9385,1.9306,1.9375,1.9317,1.9383,1.9352,1.9474,1.9487,1.9479,1.947,1.9487,1.9488,1.9509,1.9492,1.9442,1.944,1.9438,1.9437,0,1.928,1.9243,1.9363,1.9357,1.9358,1.9448,1.9445,1.9513,1.9493,1.9585,1.9603,1.9574,1.9648,1.9612,1.9689,1.9669,1.9826,1.9795,1.9819,1.9811,1.9931,1.9922,2.032,2.037,1.9999,2.0003,2.0006,0,1.945,1.9532,1.9536,1.9577,1.9586,1.9654,1.969,1.9637,1.9678,1.9709,1.9775,1.9842,1.9892,2.0016,2.0004,2.0065,2.0035,2.0171,2.0044,2.006,2.004,2.0036,2.0046,2.0196,2.0201,2.0204,2.0207,0,1.9758,1.9737,1.979,1.984,1.9886,1.9922,1.9953,1.9993,1.994,1.9993,2.0066,2.0106,2.0186,2.0256,2.031,2.0318,2.0257,2.0248,2.0278,2.0296,2.0308,2.0306,1.989,2.0238,2.0235,2.0233,2.0231,2.023,1.9987,2.0057,2.0071,2.0136,2.0154,2.0185,2.025,2.024,2.03,2.0359,2.0326,2.0414,2.0437,2.0503,2.0521,2.0592,2.0538,2.0582,2.0593,2.0605,2.0623,2.0297,2.0601,2.06,2.06,2.0599,2.0598,0,2.0292,2.0297,2.0357,2.0403,2.0456,2.0391,2.0424,2.0473,2.0551,2.0576,2.0629,2.0717,2.0786,2.0781,2.0845,2.0903,2.0877,2.0922,2.0918,2.0922,2.0665,2.0633,2.0943,2.0943,2.0943,2.0943,2.0943,2.0942,2.0456,2.0572,2.0555,2.0681,2.0686,2.0771,2.0796,2.0827,2.0847,2.0949,2.1005,2.1001,2.1016,2.1082,2.1144,2.1141,2.1169,2.1226,2.1213,2.0973,2.0939,2.0907,2.0876,2.1232,2.1232,2.1464,2.1466,2.1467]},{"header":{"parameterUnit":"m.s-1","parameterCategory":1,"la1":30.2991,"la2":30.254,"lo1":-89.0895,"lo2":-89.0444,"dy":0.0017,"dx":0.0017,"nx":28,"ny":28,"refTime":"2024-10-14T09:00:00:Z","depth":0,"parameterNumber":3,"parameterNumberName":"V-component_of_WINDS"},"data":[0,0,0,0,0,0,0,0,0,0,0,0,0,0,0,0,0,0,0,0,0,0,0,0,0,0,0,0,0,0,0,0,0,0,0,0,0,0,0,0,0,0,0,0,0,0,0,0,0,0,0,0,0,0,0,0,0,0,-1.4842,-1.4842,0,-1.4889,-1.489,-1.489,-1.4976,-1.4977,-1.4979,-1.4981,-1.5025,-1.5025,-1.5024,0,0,0,0,0,0,0,0,0,0,0,0,0,-1.4821,-1.4821,-1.4842,-1.4842,-1.4843,-1.4889,-1.489,-1.489,-1.4975,-1.4977,-1.4979,-1.4981,-1.5025,-1.5025,-1.5024,0,0,0,0,0,0,0,0,0,0,0,0,0,-1.4845,-1.4821,-1.4842,-1.4891,-1.4896,-1.4889,-1.489,-1.489,-1.4975,-1.4978,-1.498,-1.4982,-1.5025,-1.5025,-1.5024,-1.4971,0,0,-1.5022,-1.5022,0,0,0,0,0,0,0,0,-1.4844,-1.4846,-1.4883,-1.4888,-1.4893,-1.4929,-1.4899,-1.4917,-1.4974,-1.4945,-1.4981,-1.4984,-1.4991,-1.4993,-1.4997,-1.4973,-1.4975,-1.5022,-1.5022,-1.5022,-1.5022,0,0,0,0,0,0,0,-1.4842,-1.4844,-1.486,-1.4884,-1.489,-1.491,-1.4916,-1.4903,-1.4953,-1.4948,-1.4954,-1.4959,-1.4994,-1.4997,-1.4998,-1.4976,-1.5022,-1.5022,-1.5022,-1.5021,-1.491,-1.4908,0,0,0,0,0,0,-1.4834,-1.4843,-1.4859,-1.4862,-1.4874,-1.4908,-1.4915,-1.4915,-1.4954,-1.4962,-1.4956,-1.4962,-1.4997,-1.4999,-1.5,-1.494,-1.5022,-1.5021,-1.5021,-1.4913,-1.491,-1.4907,0,0,0,0,0,0,-1.4833,-1.4834,-1.4857,-1.4854,-1.4858,-1.4906,-1.4905,-1.4915,-1.4918,-1.496,-1.4969,-1.495,-1.4999,-1.5001,-1.4978,-1.4942,-1.5021,-1.5021,-1.4916,-1.4912,-1.4908,-1.4819,0,0,0,0,0,0,-1.4832,-1.4834,-1.4815,-1.4853,-1.4858,-1.4835,-1.4903,-1.4914,-1.4917,-1.4925,-1.4957,-1.4965,-1.5001,-1.4978,-1.4977,-1.4943,-1.502,-1.492,-1.4914,-1.491,-1.4825,-1.4812,-1.4801,0,0,0,0,0,-1.4831,-1.4787,-1.4814,-1.4815,-1.4836,-1.4833,-1.4835,-1.4879,-1.4914,-1.4895,-1.4922,-1.4964,-1.4947,-1.4975,-1.4975,-1.494,-1.4922,-1.4916,-1.491,-1.483,-1.4815,-1.4802,0,0,0,0,0,0,-1.4742,-1.4793,-1.4823,-1.479,-1.4807,-1.4847,-1.4824,-1.4861,-1.4867,-1.4874,-1.4927,-1.4933,-1.4903,-1.492,-1.495,-1.489,-1.4941,-1.4935,-1.488,-1.4866,-1.4854,-1.485,-1.502,0,0,0,0,0,-1.4719,-1.4714,-1.4758,-1.4725,-1.4732,-1.4776,-1.4776,-1.4809,-1.4827,-1.4834,-1.486,-1.4875,-1.4873,-1.4871,-1.4872,-1.4829,-1.4836,-1.4804,-1.4792,-1.4783,-1.4776,-1.4753,-1.4739,-1.4888,-1.4888,-1.4888,0,0,-1.4671,-1.4698,-1.4691,-1.4708,-1.4724,-1.4715,-1.4781,-1.477,-1.4764,-1.4832,-1.4812,-1.4831,-1.4852,-1.4818,-1.4804,-1.4831,-1.4737,-1.4775,-1.4767,-1.4766,-1.4745,-1.4731,-1.4719,-1.4884,-1.4884,-1.4885,0,0,-1.4578,-1.4599,-1.4573,-1.4589,-1.4613,-1.4643,-1.4637,-1.4672,-1.4688,-1.4669,-1.472,-1.4712,-1.4709,-1.4721,-1.4726,-1.4638,-1.4676,-1.4637,-1.4574,-1.4551,-1.4539,-1.4529,-1.4496,-1.4484,-1.4631,-1.463,-1.463,0,-1.4515,-1.4505,-1.4555,-1.454,-1.4545,-1.4608,-1.4582,-1.4594,-1.4616,-1.4618,-1.4648,-1.4644,-1.4662,-1.4631,-1.461,-1.4613,-1.4606,-1.4633,-1.4537,-1.4528,-1.4519,-1.4488,-1.4475,-1.4625,-1.4626,-1.4626,-1.4627,0,-1.4425,-1.4418,-1.4394,-1.4415,-1.4418,-1.4397,-1.4442,-1.4439,-1.4471,-1.4497,-1.4476,-1.45,-1.4507,-1.4502,-1.4533,-1.4475,-1.4491,-1.4528,-1.458,-1.4499,-1.447,-1.4459,-1.4618,-1.462,-1.4621,-1.4623,0,0,-1.4277,-1.4327,-1.4317,-1.4327,-1.4359,-1.4353,-1.4335,-1.4343,-1.4338,-1.4351,-1.4336,-1.4331,-1.4366,-1.4372,-1.4405,-1.4385,-1.4311,-1.4425,-1.4426,-1.4401,-1.4248,-1.4218,-1.4204,-1.4338,-1.4336,-1.4334,-1.4245,0,-1.419,-1.4163,-1.4206,-1.4168,-1.4161,-1.4221,-1.4205,-1.4221,-1.4245,-1.4242,-1.4268,-1.4264,-1.4311,-1.4315,-1.4298,-1.4324,-1.4281,-1.4331,-1.4322,-1.4321,-1.4313,-1.4189,-1.4158,-1.4074,-1.4235,-1.4233,-1.4232,0,-1.4085,-1.4094,-1.4055,-1.4089,-1.4088,-1.4072,-1.4082,-1.4079,-1.4098,-1.4117,-1.4124,-1.4163,-1.4146,-1.4197,-1.4173,-1.4206,-1.4205,-1.4217,-1.4215,-1.4214,-1.427,-1.4184,-1.4048,-1.4034,-1.4215,-1.4216,-1.4218,0,-1.3978,-1.3982,-1.3959,-1.3966,-1.4005,-1.3992,-1.4008,-1.403,-1.4032,-1.404,-1.4041,-1.4047,-1.4049,-1.4052,-1.4091,-1.4125,-1.4061,-1.4116,-1.4075,-1.4074,-1.4057,-1.4058,-1.3918,-1.4059,-1.4059,-1.406,-1.406,0,-1.3876,-1.3849,-1.3911,-1.3897,-1.3868,-1.3919,-1.3889,-1.391,-1.393,-1.3919,-1.3971,-1.396,-1.4013,-1.4007,-1.4038,-1.4012,-1.4013,-1.4027,-1.4035,-1.4021,-1.4019,-1.402,-1.4026,-1.4056,-1.4057,-1.4058,-1.4058,0,-1.3752,-1.3793,-1.3771,-1.381,-1.382,-1.3797,-1.3829,-1.3817,-1.3845,-1.3831,-1.383,-1.3873,-1.3869,-1.3909,-1.3912,-1.3932,-1.3892,-1.3911,-1.3885,-1.389,-1.3846,-1.3849,-1.3701,-1.3683,-1.3837,-1.3835,-1.3834,0,-1.3683,-1.3664,-1.3701,-1.3699,-1.3712,-1.3707,-1.3709,-1.3758,-1.3757,-1.3778,-1.3762,-1.3763,-1.3765,-1.3755,-1.3786,-1.3788,-1.3807,-1.3754,-1.3807,-1.3793,-1.3804,-1.3804,-1.3801,-1.3743,-1.3741,-1.3739,-1.3738,0,-1.3555,-1.3577,-1.3578,-1.3586,-1.3588,-1.3596,-1.3608,-1.3602,-1.3655,-1.3652,-1.3649,-1.3651,-1.3654,-1.3653,-1.3661,-1.3676,-1.3714,-1.3721,-1.3712,-1.3697,-1.3682,-1.3687,-1.3853,-1.3724,-1.3725,-1.3727,-1.3727,-1.3728,-1.3456,-1.3442,-1.3466,-1.3465,-1.3479,-1.3489,-1.3479,-1.3506,-1.3505,-1.3512,-1.3541,-1.3532,-1.3551,-1.3567,-1.3577,-1.357,-1.3595,-1.3581,-1.3578,-1.3573,-1.3564,-1.3684,-1.3572,-1.3572,-1.3573,-1.3573,-1.3573,0,-1.333,-1.3349,-1.3348,-1.3363,-1.3362,-1.3401,-1.3416,-1.3412,-1.3405,-1.342,-1.3422,-1.3417,-1.3416,-1.3447,-1.345,-1.3438,-1.3456,-1.3437,-1.3437,-1.3439,-1.3543,-1.355,-1.3422,-1.3422,-1.3422,-1.3422,-1.3422,-1.3422,-1.3264,-1.3242,-1.3266,-1.325,-1.3268,-1.3261,-1.3266,-1.3275,-1.3287,-1.3281,-1.328,-1.3301,-1.3322,-1.3327,-1.3327,-1.3336,-1.3333,-1.3308,-1.3322,-1.3418,-1.3432,-1.3446,-1.3453,-1.3307,-1.3307,-1.322,-1.3219,-1.3218]}]]